Location: A�t Bou Chrif
(32.7193°N, 5.2385°W)
Time: 03:12:00
(UTC+00:00)

SL-16 R/B - Pass Details

Date: 08 August 2020
Orbit: 843 x 845 km, 71.0° (Epoch: 20 September)

Event Time Altitude Azimuth Distance (km) Brightness Sun altitude
Rises 21:38:03 0° 1° (N) 3,408 5.9 -27.0°
Reaches altitude 10° 21:42:09 10° 30° (NNE) 2,469 4.8 -27.6°
Enters shadow 21:44:03 13° 50° (NE) 2,292 4.4 -27.9°
